Regional Weather Roundup
Issued by NWS

Home | Current Version | Previous Version | Text Only | Print | Product List | Glossary Off
Versions: 1 2 3 4 5 6 7 8 9 10 11 12 13 14 15 16 17 18 19 20 21 22 23 24 25 26 27 28 29 30 31 32 33 34 35 36 37 38 39 40 41 42 43 44 45 46 47 48 49 50

000
ASUS43 KMKX 232221
RWRWI

WISCONSIN REGIONAL WEATHER ROUNDUP
NATIONAL WEATHER SERVICE MILWAUKEE/SULLIVAN WI
500 PM CDT THU OCT 23 2014

NOTE: "FAIR" INDICATES FEW OR NO CLOUDS BELOW 12,000 FEET WITH NO
SIGNIFICANT WEATHER AND/OR OBSTRUCTIONS TO VISIBILITY.

WIZ001-002-006>008-014>016-023>028-232300-
NORTHWEST WISCONSIN

CITY           SKY/WX    TMP DP  RH WIND       PRES   REMARKS
SUPERIOR ARPT  CLEAR     59  50  73 SW3       29.94R
ASHLAND        CLOUDY    54  49  83 S6        29.97S
HAYWARD        CLOUDY    52  49  89 S6        29.98S
SIREN          SUNNY     58  50  74 SE3       29.96S
CUMBERLAND     CLOUDY    54  46  76 CALM      29.98S
RICE LAKE      CLOUDY    54  49  85 SE3       30.00S
CHETEK         CLOUDY    52  50  92 CALM      30.00R
LADYSMITH      FOG       50  49  97 S3        30.01S VSB 1/2
EAU CLAIRE     CLOUDY    52  50  93 S5        29.99S FOG
MENOMONIE      CLOUDY    54  52  94 SE3       30.00R
NEW RICHMOND   SUNNY     60  50  70 S6        29.97S
OSCEOLA        SUNNY     62  53  71 SE3       29.99R
$$

WIZ003>005-009-010-017-018-232300-
NORTH CENTRAL WISCONSIN

CITY           SKY/WX    TMP DP  RH WIND       PRES   REMARKS
MANITOWISH WTR CLOUDY    45  45 100 S7        29.99S FOG
ARBOR VITAE    CLOUDY    46  44  95 S5        29.99F FOG
WOODRUFF       CLOUDY    46  44  95 S5        29.99F FOG
RHINELANDER    CLOUDY    44  43  96 S6        30.01F FOG
EAGLE RIVER    CLOUDY    45  45 100 CALM      30.00S FOG
LAND O LAKES   CLOUDY    45  44  97 CALM      30.00S
PHILLIPS       CLOUDY    46  46 100 S5        29.99S FOG
TOMAHAWK       CLOUDY    45  44  96 CALM      30.01F FOG
MEDFORD        FOG       46  46  99 S3        30.00F VSB 1/2
MERRILL        CLOUDY    46  46  99 CALM      30.01F FOG
$$

WIZ029-030-035-036-043>047-232300-
CENTRAL WISCONSIN

CITY           SKY/WX    TMP DP  RH WIND       PRES   REMARKS
WAUSAU         CLOUDY    46  45  96 S5        30.01S FOG
MOSINEE        CLOUDY    45  45 100 S5        30.03S FOG
MARSHFIELD     FOG       48  47  96 SW3       30.01S VSB 1/2
STEVENS POINT  CLOUDY    45  45  99 S3        30.03S FOG
WAUPACA        RAIN      49  47  96 CALM      30.05R
WAUTOMA        CLOUDY    48  46  93 CALM      30.05S FOG
WISC RAPIDS    CLOUDY    47  46  97 S5        30.04S
CAMP DOUGLAS   CLOUDY    48  48 100 SW3       30.03S
$$

WIZ011>013-019>022-031-037>040-048>050-232300-
NORTHEAST WISCONSIN

CITY           SKY/WX    TMP DP  RH WIND       PRES   REMARKS
ANTIGO         FOG       43  43 100 S6        30.03S VSB 1/4
SHAWANO        DRIZZLE   49  47  92 CALM      30.05R
OCONTO         CLOUDY    49  48  93 CALM      30.04S
STURGEON BAY   CLOUDY    50  45  81 S9        30.06R
GREEN BAY      LGT RAIN  49  47  93 SW5       30.05S FOG
MANITOWOC      LGT RAIN  51  48  89 S12       30.07R
APPLETON       LGT RAIN  48  46  93 S12       30.05S FOG
CLINTONVILLE   CLOUDY    46  45  93 S5        30.05R FOG
OSHKOSH        LGT RAIN  50  48  93 E3        30.05F FOG
$$

WIZ032>034-041-042-053>061-232300-
SOUTHWEST WISCONSIN

CITY           SKY/WX    TMP DP  RH WIND       PRES   REMARKS
LA CROSSE      LGT RAIN  50  48  93 S5        30.03R FOG
SPARTA         CLOUDY    47  47  97 S3        30.03F FOG
VIROQUA        CLOUDY    47  47 100 SW3       30.03S VSB 1/4
BOSCOBEL       CLOUDY    50  47  89 CALM      30.04S FOG
PRAIRIE DU CHI CLOUDY    51  48  90 CALM      30.03S
PLATTEVILLE    CLOUDY    51  49  94 S6        30.04S
$$

WIZ056-057-062-063-064-067-068-232300-
SOUTH CENTRAL WISCONSIN

CITY           SKY/WX    TMP DP  RH WIND       PRES   REMARKS
REEDSBURG      CLOUDY    47  46  99 SW5       30.03S FOG
BARABOO/DELLS  CLOUDY    47  46  93 SW5       30.03S FOG
LONE ROCK      HAZE      53  47  79 CALM      30.04R VSB 1
MINERAL POINT  CLOUDY    52  48  87 S6        30.04R FOG
MADISON        CLOUDY    52  48  86 S3        30.04S
MIDDLETON      CLOUDY    53  49  87 S3        30.04S
WATERTOWN      CLOUDY    51  51  99 CALM      30.04F
MONROE         LGT RAIN  52  50  93 SW6       30.04S
JANESVILLE     NOT AVBL
$$

WIZ051-052-058>065-066-070>072-232300-
SOUTHEAST WISCONSIN

CITY           SKY/WX    TMP DP  RH WIND       PRES   REMARKS
MILWAUKEE      LGT RAIN  54  45  71 SE12      30.06F
WAUKESHA       CLOUDY    54  45  71 CALM      30.06F
MILWAUKEE/TIMM CLOUDY    54  46  76 SW5       30.06S
RACINE         CLOUDY    54  46  74 S9        30.08S
BURLINGTON     CLOUDY    55  43  63 S5        30.05F
KENOSHA        CLOUDY    57  43  59 SW8       30.07R
FOND DU LAC    LGT RAIN  50  48  93 CALM      30.05F
SHEBOYGAN      LGT RAIN  50  47  89 S7        30.07F FOG
WEST BEND      LGT RAIN  50  46  87 CALM      30.06R
JUNEAU         CLOUDY    50  48  93 CALM      30.05F
$$

LSZ147-162-232300-
LAKE SUPERIOR

STATION/POSITION TIME  TEMP    WIND        PRES    WAVE
                       AIR SEA DIR/SP/G            HT/PER
                 (UTC) (F)     (DEG/KT/KT) (MB)    (FT/S)
W MID LAKE BUOY  2150   47 46  210/  6/  8 1014.9R   1/ 3
DEVILS ISLAND    2200   51     160/  3/  4 1014.8F
PORT WING        2100   52     280/  3/  5 1014.6S
SAXON HARBOR     2100   54     200/  8/ 11 1014.6
$$

LMZ867-665-643>646-232300-
LAKE MICHIGAN

STATION/POSITION TIME  TEMP    WIND        PRES    WAVE
                       AIR SEA DIR/SP/G            HT/PER
                 (UTC) (F)     (DEG/KT/KT) (MB)    (FT/S)
CHAMBERS ISLAND  2100   51     160/  2/  4 1017.6F
N MID LAKE BUOY  2150   51 51  190/ 17/ 19 1017.8F   3/ 5
NORTHPORT PIER   2100   52     160/  6/ 14 1017.6F
SISTER BAY       2113          200/ 13/ 15   N/A
ALGOMA LAKESHORE 1941          220/ 18/ 20   N/A
KEWAUNEE LAKESHO 2200   51     180/ 11/ 13 1017.2R
SHEBOYGAN LAKESH 2200   50 51  190/  9/ 10 1018.7F
PORT WASHINGTON  2100   53     190/  9/ 12 1019.0
ATWATER BUOY     2200   52     150/ 16/ 17 1018.2F
MILWAUKEE LAKESH 2200   52     150/ 11/ 14   N/A
S MID LAKE BUOY  2150   54 54  170/ 14/ 16 1018.8F   2/ 4
KENOSHA   LAKESH 2200   54     180/  8/ 11 1017.9S
$$

TC  - TEMPERATURE IN CELSIUS
VSB - VISIBILITY IN STATUTE MILES
WCI - WIND CHILL INDEX
HX  - HEAT INDEX




USA.gov is the U.S. government's official web portal to all federal, state and local government web resources and services.